• In Uzbekistan
  • List of Countries
  • For 7 days
  • Water Temperature
  • Satellite Maps
  • Weather Map
  • Weather Widgets
  • user-avatar
    Login

    Hourly Weather Yahyalı

    Today, 23 October, Monday

    Time Temperature Precipitation Wind Pressure Humidity
    00:00 +8°C° 0 mm 1 mps 627 mmHg 42%
    01:00 +8°C° 0 mm 1 mps 627 mmHg 40%
    02:00 +8°C° 0 mm 1 mps 627 mmHg 39%
    03:00 +7°C° 0 mm 1 mps 627 mmHg 39%
    04:00 +7°C° 0 mm 1 mps 627 mmHg 39%
    05:00 +6°C° 0 mm 1 mps 626 mmHg 39%
    06:00 +9°C° 0 mm 1 mps 627 mmHg 34%
    07:00 +11°C° 0 mm 1 mps 628 mmHg 30%
    08:00 +13°C° 0 mm 1 mps 629 mmHg 26%
    09:00 +15°C° 0 mm 1 mps 630 mmHg 25%
    10:00 +16°C° 0 mm 2 mps 630 mmHg 23%
    11:00 +18°C° 0 mm 2 mps 630 mmHg 22%
    12:00 +18°C° 0 mm 3 mps 630 mmHg 22%
    13:00 +18°C° 0 mm 3 mps 630 mmHg 22%
    14:00 +19°C° 0 mm 3 mps 630 mmHg 22%
    15:00 +17°C° 0 mm 3 mps 629 mmHg 28%
    16:00 +14°C° 0 mm 3 mps 628 mmHg 34%
    17:00 +13°C° 0 mm 3 mps 627 mmHg 40%
    18:00 +12°C° 0 mm 3 mps 627 mmHg 46%
    19:00 +11°C° 0 mm 3 mps 627 mmHg 52%
    20:00 +10°C° 0 mm 3 mps 627 mmHg 57%
    21:00 +9°C° 0 mm 3 mps 627 mmHg 60%
    22:00 +9°C° 0 mm 3 mps 627 mmHg 62%
    23:00 +8°C° 0 mm 3 mps 627 mmHg 65%

    Tomorrow, 24 October, Tuesday

    Time Temperature Precipitation Wind Pressure Humidity
    00:00 +8°C° 0 mm 3 mps 627 mmHg 67%
    01:00 +8°C° 0 mm 3 mps 627 mmHg 70%
    02:00 +7°C° 0 mm 3 mps 626 mmHg 73%
    03:00 +7°C° 0 mm 3 mps 626 mmHg 72%
    04:00 +7°C° 0 mm 3 mps 626 mmHg 71%
    05:00 +7°C° 0 mm 3 mps 626 mmHg 70%
    06:00 +9°C° 0 mm 3 mps 627 mmHg 64%
    07:00 +10°C° 0 mm 3 mps 628 mmHg 58%
    08:00 +12°C° 0 mm 4 mps 629 mmHg 52%
    09:00 +14°C° 0 mm 4 mps 629 mmHg 46%
    10:00 +15°C° 0 mm 5 mps 629 mmHg 40%
    11:00 +17°C° 0 mm 6 mps 630 mmHg 34%
    12:00 +17°C° 0 mm 6 mps 629 mmHg 33%
    13:00 +17°C° 0 mm 6 mps 629 mmHg 32%
    14:00 +17°C° 0 mm 6 mps 629 mmHg 31%
    15:00 +16°C° 0 mm 5 mps 628 mmHg 35%
    16:00 +14°C° 0 mm 4 mps 628 mmHg 39%
    17:00 +12°C° 0 mm 3 mps 627 mmHg 44%
    18:00 +12°C° 0 mm 3 mps 628 mmHg 47%
    19:00 +11°C° 0 mm 3 mps 628 mmHg 50%
    20:00 +10°C° 0 mm 3 mps 628 mmHg 53%
    21:00 +9°C° 0 mm 3 mps 628 mmHg 54%
    22:00 +9°C° 0 mm 3 mps 628 mmHg 55%
    23:00 +9°C° 0 mm 3 mps 628 mmHg 56%

    Day after tomorrow, 25 October, Wednesday

    Time Temperature Precipitation Wind Pressure Humidity
    00:00 +8°C° 0 mm 3 mps 628 mmHg 57%
    01:00 +8°C° 0 mm 3 mps 628 mmHg 58%
    02:00 +8°C° 0 mm 3 mps 628 mmHg 60%
    03:00 +7°C° 0 mm 3 mps 628 mmHg 60%
    04:00 +7°C° 0 mm 3 mps 628 mmHg 60%
    05:00 +7°C° 0 mm 3 mps 628 mmHg 61%
    06:00 +9°C° 0 mm 3 mps 629 mmHg 56%
    07:00 +10°C° 0 mm 3 mps 629 mmHg 51%
    08:00 +12°C° 0 mm 3 mps 630 mmHg 45%
    09:00 +13°C° 0 mm 4 mps 631 mmHg 40%
    10:00 +15°C° 0 mm 4 mps 631 mmHg 34%
    11:00 +16°C° 0 mm 5 mps 632 mmHg 28%
    12:00 +17°C° 0 mm 4 mps 632 mmHg 29%
    13:00 +17°C° 0 mm 4 mps 632 mmHg 29%
    14:00 +17°C° 0 mm 4 mps 632 mmHg 29%
    15:00 +16°C° 0 mm 3 mps 631 mmHg 35%
    16:00 +14°C° 0 mm 3 mps 631 mmHg 41%
    17:00 +13°C° 0 mm 2 mps 631 mmHg 46%
    18:00 +12°C° 0 mm 2 mps 630 mmHg 52%
    19:00 +10°C° 0 mm 2 mps 630 mmHg 57%
    20:00 +9°C° 0 mm 2 mps 630 mmHg 63%
    21:00 +9°C° 0 mm 2 mps 630 mmHg 67%
    22:00 +9°C° 0 mm 2 mps 630 mmHg 71%
    23:00 +8°C° 0 mm 2 mps 630 mmHg 75%

    26 October, Thursday

    Time Temperature Precipitation Wind Pressure Humidity
    00:00 +8°C° 0.1 mm 2 mps 630 mmHg 78%
    01:00 +8°C° 0.1 mm 2 mps 630 mmHg 82%
    02:00 +7°C° 0.1 mm 2 mps 630 mmHg 85%
    03:00 +7°C° 0.2 mm 2 mps 630 mmHg 85%
    04:00 +7°C° 0.2 mm 2 mps 630 mmHg 86%
    05:00 +8°C° 0.2 mm 1 mps 630 mmHg 87%
    06:00 +9°C° 0.2 mm 1 mps 630 mmHg 81%
    07:00 +10°C° 0.2 mm 1 mps 631 mmHg 76%
    08:00 +11°C° 0.2 mm 1 mps 632 mmHg 70%
    09:00 +12°C° 0.2 mm 2 mps 632 mmHg 62%
    10:00 +13°C° 0.2 mm 2 mps 632 mmHg 55%
    11:00 +14°C° 0.2 mm 2 mps 633 mmHg 47%
    12:00 +15°C° 0.1 mm 2 mps 632 mmHg 44%
    13:00 +15°C° 0.1 mm 2 mps 632 mmHg 42%
    14:00 +15°C° 0.1 mm 2 mps 632 mmHg 39%
    15:00 +14°C° 0 mm 2 mps 632 mmHg 44%
    16:00 +13°C° 0 mm 2 mps 631 mmHg 49%
    17:00 +11°C° 0 mm 1 mps 631 mmHg 55%
    18:00 +10°C° 0 mm 1 mps 631 mmHg 59%
    19:00 +9°C° 0 mm 1 mps 631 mmHg 64%
    20:00 +9°C° 0 mm 1 mps 631 mmHg 69%
    21:00 +8°C° 0 mm 1 mps 631 mmHg 71%
    22:00 +8°C° 0 mm 1 mps 631 mmHg 72%
    23:00 +7°C° 0 mm 1 mps 631 mmHg 74%

    27 October, Friday

    Time Temperature Precipitation Wind Pressure Humidity
    00:00 +7°C° 0 mm 1 mps 630 mmHg 75%
    01:00 +7°C° 0 mm 1 mps 630 mmHg 75%
    02:00 +6°C° 0 mm 1 mps 630 mmHg 76%
    03:00 +6°C° 0 mm 1 mps 630 mmHg 77%
    04:00 +6°C° 0 mm 1 mps 630 mmHg 78%
    05:00 +5°C° 0 mm 1 mps 629 mmHg 79%
    06:00 +7°C° 0 mm 1 mps 630 mmHg 72%
    07:00 +8°C° 0 mm 1 mps 631 mmHg 64%
    08:00 +10°C° 0 mm 1 mps 632 mmHg 57%
    09:00 +11°C° 0 mm 1 mps 632 mmHg 51%
    10:00 +13°C° 0 mm 1 mps 632 mmHg 44%
    11:00 +14°C° 0 mm 1 mps 632 mmHg 38%
    12:00 +15°C° 0 mm 1 mps 632 mmHg 35%
    13:00 +15°C° 0 mm 1 mps 632 mmHg 33%
    14:00 +16°C° 0 mm 1 mps 631 mmHg 31%
    15:00 +14°C° 0 mm 1 mps 631 mmHg 36%
    16:00 +13°C° 0 mm 1 mps 630 mmHg 40%
    17:00 +11°C° 0 mm 1 mps 629 mmHg 45%
    18:00 +10°C° 0 mm 1 mps 629 mmHg 49%
    19:00 +9°C° 0 mm 1 mps 629 mmHg 54%
    20:00 +9°C° 0 mm 1 mps 628 mmHg 58%
    21:00 +8°C° 0 mm 1 mps 628 mmHg 60%
    22:00 +8°C° 0 mm 1 mps 628 mmHg 62%
    23:00 +7°C° 0 mm 1 mps 627 mmHg 64%

    28 October, Saturday

    Time Temperature Precipitation Wind Pressure Humidity
    00:00 +7°C° 0 mm 1 mps 627 mmHg 66%
    01:00 +7°C° 0 mm 1 mps 627 mmHg 67%
    02:00 +6°C° 0 mm 1 mps 626 mmHg 68%
    03:00 +5°C° 0 mm 2 mps 626 mmHg 68%
    04:00 +5°C° 0 mm 2 mps 626 mmHg 67%
    05:00 +5°C° 0 mm 2 mps 626 mmHg 67%
    06:00 +6°C° 0 mm 2 mps 627 mmHg 60%
    07:00 +8°C° 0 mm 2 mps 627 mmHg 52%
    08:00 +10°C° 0 mm 2 mps 628 mmHg 45%
    09:00 +11°C° 0 mm 3 mps 628 mmHg 41%
    10:00 +13°C° 0 mm 3 mps 629 mmHg 37%
    11:00 +14°C° 0 mm 4 mps 629 mmHg 32%
    12:00 +15°C° 0 mm 4 mps 629 mmHg 32%
    13:00 +15°C° 0 mm 4 mps 628 mmHg 32%
    14:00 +15°C° 0 mm 4 mps 628 mmHg 32%
    15:00 +13°C° 0.1 mm 3 mps 628 mmHg 36%
    16:00 +12°C° 0.1 mm 3 mps 627 mmHg 40%
    17:00 +10°C° 0.1 mm 3 mps 627 mmHg 45%
    18:00 +9°C° 0 mm 2 mps 627 mmHg 48%
    19:00 +8°C° 0 mm 2 mps 627 mmHg 51%
    20:00 +8°C° 0 mm 2 mps 627 mmHg 54%
    21:00 +7°C° 0 mm 2 mps 626 mmHg 55%
    22:00 +7°C° 0 mm 2 mps 626 mmHg 56%
    23:00 +6°C° 0 mm 2 mps 626 mmHg 57%

    29 October, Sunday

    Time Temperature Precipitation Wind Pressure Humidity
    00:00 +6°C° 0 mm 2 mps 626 mmHg 58%
    01:00 +6°C° 0 mm 2 mps 626 mmHg 59%
    02:00 +5°C° 0 mm 2 mps 626 mmHg 61%
    03:00 +5°C° 0 mm 2 mps 626 mmHg 63%
    04:00 +5°C° 0 mm 2 mps 626 mmHg 66%
    05:00 +3°C° 0 mm 3 mps 626 mmHg 68%
    06:00 +5°C° 0 mm 3 mps 627 mmHg 66%
    07:00 +7°C° 0 mm 3 mps 627 mmHg 65%
    08:00 +8°C° 0 mm 3 mps 628 mmHg 63%
    09:00 +10°C° 0 mm 4 mps 629 mmHg 57%
    10:00 +11°C° 0 mm 4 mps 629 mmHg 52%
    11:00 +13°C° 0 mm 4 mps 629 mmHg 46%
    12:00 +13°C° 0 mm 4 mps 629 mmHg 47%
    13:00 +13°C° 0 mm 5 mps 629 mmHg 47%
    14:00 +14°C° 0 mm 5 mps 629 mmHg 47%
    15:00 +12°C° 0 mm 4 mps 628 mmHg 55%
    16:00 +11°C° 0 mm 4 mps 628 mmHg 63%
    17:00 +10°C° 0 mm 4 mps 627 mmHg 72%
    18:00 +8°C° 0 mm 4 mps 627 mmHg 76%
    19:00 +9°C° 0 mm 3 mps 628 mmHg 80%
    20:00 +8°C° 0 mm 3 mps 628 mmHg 84%
    21:00 +8°C° 0 mm 3 mps 627 mmHg 85%
    22:00 +7°C° 0 mm 4 mps 627 mmHg 87%
    23:00 +7°C° 0 mm 4 mps 627 mmHg 88%
    Show more